Torna al catalogo

SL-8 R/B

AttivoPO
NORAD 22208·ROCKET BODY·🇷🇺 Russia

Lanciato Oct 29, 1992 da Plesetsk Cosmodrome

Loading…

Prossimi Passaggi (prossime 24 ore)

TLE

AggiornatoSource: Space-Track

Epoca: Sep 13, 2026, 22:48 UTC

1 22208U 92073B   26256.95054786  .00000051  00000-0  37817-4 0  9996
2 22208  82.9195  32.5677 0033818 344.3179 151.8092 13.75453149699725

Traccia SL-8 R/B in tempo reale con AllMySat

Download on the App Store